This is the latest recevied weather packets stored in our database for station/object F5ZQC-13. If no packets are shown the sender has not sent any weather packets the latest 10 day(s).
| Time | Temp. | Humidity | Pressure | Rain* | Wind** | Luminosity | Snow |
|---|---|---|---|---|---|---|---|
| 1778174964 | 22.22° C | 22% | 1009.5 hPa | 0 mm | - | - | - |
| 1778174841 | 22.22° C | 22% | 1009.4 hPa | 0 mm | - | - | - |
| 1778174718 | 22.22° C | 21% | 1009.5 hPa | 0 mm | - | - | - |
| 1778174596 | 22.22° C | 21% | 1009.4 hPa | 0 mm | - | - | - |
| 1778174230 | 22.78° C | 21% | 1009.3 hPa | 0 mm | - | - | - |
| 1778174107 | 23.33° C | 21% | 1009.2 hPa | 0 mm | - | - | - |
| 1778173985 | 23.33° C | 20% | 1009.2 hPa | 0 mm | - | - | - |
| 1778173863 | 23.33° C | 21% | 1009.3 hPa | 0 mm | - | - | - |
| 1778173741 | 23.33° C | 20% | 1009.3 hPa | 0 mm | - | - | - |
| 1778173496 | 23.89° C | 22% | 1009.3 hPa | 0 mm | - | - | - |
| 1778173373 | 23.89° C | 22% | 1009.2 hPa | 0 mm | - | - | - |
| 1778173251 | 23.89° C | 22% | 1009.3 hPa | 0 mm | - | - | - |
| 1778173129 | 23.89° C | 21% | 1009.3 hPa | 0 mm | - | - | - |
| 1778173007 | 23.89° C | 21% | 1009.2 hPa | 0 mm | - | - | - |
| 1778172884 | 23.89° C | 21% | 1009.3 hPa | 0 mm | - | - | - |
| 1778172762 | 23.89° C | 21% | 1009.3 hPa | 0 mm | - | - | - |
| 1778172518 | 24.44° C | 21% | 1009.3 hPa | 0 mm | - | - | - |
| 1778172395 | 23.89° C | 22% | 1009.2 hPa | 0 mm | - | - | - |
| 1778172151 | 23.89° C | 23% | 1009.2 hPa | 0 mm | - | - | - |
| 1778171907 | 23.33° C | 23% | 1009.3 hPa | 0 mm | - | - | - |
| 1778171784 | 23.33° C | 23% | 1009.3 hPa | 0 mm | - | - | - |
| 1778171661 | 23.33° C | 23% | 1009.2 hPa | 0 mm | - | - | - |
| 1778171539 | 22.78° C | 23% | 1009.3 hPa | 0 mm | - | - | - |
| 1778171295 | 22.78° C | 24% | 1009.3 hPa | 0 mm | - | - | - |
| 1778171050 | 22.22° C | 24% | 1009.1 hPa | 0 mm | - | - | - |
* Rain since midnight (hover to see other rain measurements)
** Current wind speed in m/s (hover to see current wind gust speed)